STARLINK-33595 (62766 NORAD) Tracking and Keplerian Element Data

This shows tracking and keplerian element data for the satellite.

Feedback or suggestion? Click here.




ElementValue
Catalog62766
NameSTARLINK-33595
Epoch Orbit339
Epoch Day35.25001157
Epoch Year2025
RAAN18.6876
Inclination53.1599
Eccentricity0.0001151
Argument of Perigee65.9643
Mean Anonmoly205.5971
Mean Motion15.78716067
Decay Rate-0.0099732
L11 62766U 25015J 25035.25001157 -.00997320 00000+0 -62587-2 0 9997
L22 62766 53.1599 18.6876 0001151 65.9643 205.5971 15.78716067 3390



Live tracking and technical data element details for STARLINK-33595 (NORAD 62766). STARLINK-33595 can be tracked NOW for your location showing map with azimuth and elevation plus other details from your city location.







IsCatalogInMostPopularTable: catalog: 62766, numindb: 192
Update: records affected: 1



GetName: 62766 STARLINK-33595

Hit Count: updated at: Mon, 17 Nov 2025 18:08:55 GMT